{"data":{"norad_id":68299,"intl_designator":"2026-057F","name":"STARLINK-37118","alt_names":[],"object_type":"PAYLOAD","status":"ACTIVE","operator":null,"country":"US","launch_date":"2026-03-20","launch_site_code":"AFWTR","launch_vehicle":null,"mission":null,"orbit_class":"UNKNOWN","rcs_meters":null,"size_class":null,"mass_kg":null,"dimensions":null,"purposes":["comms"],"wikipedia_slug":null,"has_3d_model":false,"image_url":null,"decayed_at":null,"tle_current":{"epoch":"2026-09-20T03:12:36.798336Z","epoch_age_seconds":82733,"freshness":"FRESH","line1":"1 68299U 26057F   26263.13375924  .00028464  00000+0  87959-3 0  9991","line2":"2 68299  97.2852  28.4782 0001031  79.2474 280.8885 15.33484632 28455","mean_motion":15.33484632,"eccentricity":0.0001031,"inclination_deg":97.2852,"raan_deg":28.4782,"arg_perigee_deg":79.2474,"mean_anomaly_deg":280.8885,"bstar":0.00087959,"rev_number":2845,"period_min":93.90377770672,"perigee_km":464.71968880019,"apogee_km":466.13083133821,"semimajor_km":6843.5622600692,"source":"CELESTRAK","updated_at":"2026-09-20T09:00:43.854371Z"}}}